Location: Praha
(50.0830°N, 14.4670°E)
Time: 05:47:32
(UTC+01:00)

ISS - Pass Details

Date: 12 December 2019
Orbit: 411 x 421 km, 51.6° (Epoch: 15 December)

Event Time Altitude Azimuth Distance (km) Brightness Sun altitude
Rises 16:47:37 0° 285° (WNW) 2,356 0.9 -7.3°
Reaches altitude 10° 16:50:00 10° 270° (W) 1,492 0.2 -7.7°
Maximum altitude 16:52:39 22° 217° (SW) 966 -1.0 -8.1°
Drops below altitude 10° 16:55:18 10° 164° (SSE) 1,490 -0.8 -8.4°
Sets 16:57:41 0° 149° (SSE) 2,351 0.0 -8.8°
